STARLINK-3973 (52645 NORAD) Tracking and Keplerian Element Data
This shows tracking and keplerian element data for the satellite.
Feedback or suggestion? Click here.
Element | Value |
Catalog | 52645 |
Name | STARLINK-3973 |
Epoch Orbit | 130 |
Epoch Day | 167.08334491 |
Epoch Year | 2022 |
RAAN | 279.9837 |
Inclination | 53.2141 |
Eccentricity | 0.0001575 |
Argument of Perigee | 27.6301 |
Mean Anonmoly | 17.4046 |
Mean Motion | 15.7320183 |
Decay Rate | 0.00070817 |
L1 | 1 52645U 22052AZ 22167.08334491 .00070817 00000+0 50470-3 0 9994 |
L2 | 2 52645 53.2141 279.9837 0001575 27.6301 17.4046 15.73201830 1308 |
Live tracking and technical data element details for STARLINK-3973 (NORAD 52645). STARLINK-3973 can be tracked NOW for your location showing map with azimuth and elevation plus other details from your city location.
Track the satellite on the map from your city or location and see movement details for azimuth, elevation, latitude, longitude, range, height, and movement on the map or in text.
IsCatalogInMostPopularTable: catalog: 52645, numindb: 1
Update: records affected: 1
GetName: 52645 STARLINK-3973
Hit Count: updated at: Mon, 27 Jun 2022 05:29:23 GMT